owner,sensor,date,latitude,longitude,vertical_datum,wind_speed,wind_to_direction,wind_speed_of_gust,qcFlag 
TABS,ioos:station:wmo:42044:1,2002-10-01T00:09:00Z,26.1914,-97.0507,0.0,6.123569221,114.0958563,8.13,'11111222,11111222,11111222' 
TABS,ioos:station:wmo:42044:1,2002-10-01T00:39:00Z,26.1914,-97.0507,0.0,6.176876233,115.6112622,7.94,'11111222,11111222,11111222' 
TABS,ioos:station:wmo:42044:1,2002-10-01T01:09:00Z,26.1914,-97.0507,0.0,6.670832032,113.8756459,8.93,'11111222,11111222,11111222' 
TABS,ioos:station:wmo:42044:1,2002-10-01T01:39:00Z,26.1914,-97.0507,0.0,7.303047309,116.7759258,9.07,'11111222,11111222,11111222' 
TABS,ioos:station:wmo:42044:1,2002-10-01T02:09:00Z,26.1914,-97.0507,0.0,7.338698795,121.4595213,8.9,'11111222,11111222,11111222' 
TABS,ioos:station:wmo:42044:1,2002-10-01T02:39:00Z,26.1914,-97.0507,0.0,7.136280544,121.418495,8.85,'11111222,11111222,11111222' 
TABS,ioos:station:wmo:42044:1,2002-10-01T03:09:00Z,26.1914,-97.0507,0.0,6.73575534,117.4023386,8.47,'11111222,11111222,11111222' 
TABS,ioos:station:wmo:42044:1,2002-10-01T03:39:00Z,26.1914,-97.0507,0.0,7.854813811,117.7724858,9.64,'11111222,11111222,11111222' 
TABS,ioos:station:wmo:42044:1,2002-10-01T04:09:00Z,26.1914,-97.0507,0.0,8.318701822,125.4099093,10.18,'11111222,11111222,11111222' 
TABS,ioos:station:wmo:42044:1,2002-10-01T04:39:00Z,26.1914,-97.0507,0.0,8.123312132,127.9000604,10.37,'11111222,11111222,11111222' 
TABS,ioos:station:wmo:42044:1,2002-10-01T05:09:00Z,26.1914,-97.0507,0.0,8.681681865,138.0817724,10.8,'11111222,11111222,11111222' 
TABS,ioos:station:wmo:42044:1,2002-10-01T05:39:00Z,26.1914,-97.0507,0.0,8.278000966,143.1027133,10.29,'11111222,11111222,11111222' 
TABS,ioos:station:wmo:42044:1,2002-10-01T06:09:00Z,26.1914,-97.0507,0.0,8.542722049,141.225273,11.18,'11111222,11111222,11111222' 
TABS,ioos:station:wmo:42044:1,2002-10-01T06:39:00Z,26.1914,-97.0507,0.0,8.965288618,140.5220391,11.23,'11111222,11111222,11111222' 
TABS,ioos:station:wmo:42044:1,2002-10-01T07:09:00Z,26.1914,-97.0507,0.0,9.405471812,145.7019747,12.01,'11111222,11111222,11111222' 
TABS,ioos:station:wmo:42044:1,2002-10-01T07:39:00Z,26.1914,-97.0507,0.0,9.790490284,146.4563009,11.99,'11111222,11111222,11111222' 
TABS,ioos:station:wmo:42044:1,2002-10-01T08:09:00Z,26.1914,-97.0507,0.0,8.972697476,150.1207534,11.38,'11111222,11111222,11111222' 
TABS,ioos:station:wmo:42044:1,2002-10-01T08:39:00Z,26.1914,-97.0507,0.0,8.091062971,145.5245919,11.23,'11111222,11111222,11111222' 
TABS,ioos:station:wmo:42044:1,2002-10-01T09:09:00Z,26.1914,-97.0507,0.0,8.449153804,152.4343935,11.2,'11111222,11111222,11111222' 
TABS,ioos:station:wmo:42044:1,2002-10-01T09:39:00Z,26.1914,-97.0507,0.0,8.160251222,150.3250696,11.17,'11111222,11111222,11111222' 
TABS,ioos:station:wmo:42044:1,2002-10-01T10:09:00Z,26.1914,-97.0507,0.0,7.92914245,153.2413282,10.29,'11111222,11111222,11111222' 
TABS,ioos:station:wmo:42044:1,2002-10-01T10:39:00Z,26.1914,-97.0507,0.0,8.615480254,147.1771534,11.6,'11111222,11111222,11111222' 
TABS,ioos:station:wmo:42044:1,2002-10-01T11:09:00Z,26.1914,-97.0507,0.0,8.809177033,142.1937689,12.17,'11111222,11111222,11111222' 
TABS,ioos:station:wmo:42044:1,2002-10-01T11:39:00Z,26.1914,-97.0507,0.0,7.35769665,141.8999314,9.79,'11111222,11111222,11111222' 
TABS,ioos:station:wmo:42044:1,2002-10-01T12:09:00Z,26.1914,-97.0507,0.0,7.418146669,145.0462372,9.96,'11111222,11111222,11111222' 
TABS,ioos:station:wmo:42044:1,2002-10-01T12:39:00Z,26.1914,-97.0507,0.0,7.836791435,145.1340516,10.0,'11111222,11111222,11111222' 
TABS,ioos:station:wmo:42044:1,2002-10-01T13:09:00Z,26.1914,-97.0507,0.0,8.485057454,145.467424,10.63,'11111222,11111222,11111222' 
TABS,ioos:station:wmo:42044:1,2002-10-01T13:39:00Z,26.1914,-97.0507,0.0,7.871219728,146.4515426,9.81,'11111222,11111222,11111222' 
TABS,ioos:station:wmo:42044:1,2002-10-01T14:09:00Z,26.1914,-97.0507,0.0,8.500782317,146.2728347,10.69,'11111222,11111222,11111222' 
TABS,ioos:station:wmo:42044:1,2002-10-01T14:39:00Z,26.1914,-97.0507,0.0,8.936201654,144.8874619,11.25,'11111222,11111222,11111222' 
TABS,ioos:station:wmo:42044:1,2002-10-01T15:09:00Z,26.1914,-97.0507,0.0,8.146373426,142.5817956,10.34,'11111222,11111222,11111222' 
TABS,ioos:station:wmo:42044:1,2002-10-01T15:39:00Z,26.1914,-97.0507,0.0,8.405629066,140.1161855,10.3,'11111222,11111222,11111222' 
TABS,ioos:station:wmo:42044:1,2002-10-01T16:09:00Z,26.1914,-97.0507,0.0,8.10246876,141.7159791,10.44,'11111222,11111222,11111222' 
TABS,ioos:station:wmo:42044:1,2002-10-01T16:39:00Z,26.1914,-97.0507,0.0,7.730646803,141.1437205,9.98,'11111222,11111222,11111222' 
TABS,ioos:station:wmo:42044:1,2002-10-01T17:09:00Z,26.1914,-97.0507,0.0,7.612266417,136.8101707,9.89,'11111222,11111222,11111222' 
TABS,ioos:station:wmo:42044:1,2002-10-01T17:39:00Z,26.1914,-97.0507,0.0,7.220006925,126.9495891,9.24,'11111222,11111222,11111222' 
TABS,ioos:station:wmo:42044:1,2002-10-01T18:09:00Z,26.1914,-97.0507,0.0,7.57714986,131.8976069,10.15,'11111222,11111222,11111222' 
TABS,ioos:station:wmo:42044:1,2002-10-01T18:39:00Z,26.1914,-97.0507,0.0,7.467275273,127.9291526,9.8,'11111222,11111222,11111222' 
TABS,ioos:station:wmo:42044:1,2002-10-01T19:09:00Z,26.1914,-97.0507,0.0,7.321236234,116.0054215,9.45,'11111222,11111222,11111222' 
TABS,ioos:station:wmo:42044:1,2002-10-01T19:39:00Z,26.1914,-97.0507,0.0,7.786205751,111.7881148,9.96,'11111222,11111222,11111222' 
TABS,ioos:station:wmo:42044:1,2002-10-01T20:09:00Z,26.1914,-97.0507,0.0,7.33877374,112.0917347,9.38,'11111222,11111222,11111222' 
TABS,ioos:station:wmo:42044:1,2002-10-01T20:39:00Z,26.1914,-97.0507,0.0,7.350972725,109.7171151,9.19,'11111222,11111222,11111222' 
TABS,ioos:station:wmo:42044:1,2002-10-01T21:09:00Z,26.1914,-97.0507,0.0,7.283213576,112.2692501,9.36,'11111222,11111222,11111222' 
TABS,ioos:station:wmo:42044:1,2002-10-01T21:39:00Z,26.1914,-97.0507,0.0,6.853882112,109.5192404,8.92,'11111222,11111222,11111222' 
TABS,ioos:station:wmo:42044:1,2002-10-01T22:09:00Z,26.1914,-97.0507,0.0,6.271371461,111.1231538,8.39,'11111222,11111222,11111222' 
TABS,ioos:station:wmo:42044:1,2002-10-01T22:39:00Z,26.1914,-97.0507,0.0,6.553548657,105.6695713,8.48,'11111222,11111222,11111222' 
TABS,ioos:station:wmo:42044:1,2002-10-01T23:09:00Z,26.1914,-97.0507,0.0,6.435254463,108.2945514,8.83,'11111222,11111222,11111222' 
TABS,ioos:station:wmo:42044:1,2002-10-01T23:39:00Z,26.1914,-97.0507,0.0,6.63,112.620233,8.45,'11111222,11111222,11111222' 
TABS,ioos:station:wmo:42044:1,2002-10-02T00:09:00Z,26.1914,-97.0507,0.0,6.740356074,97.67368756,8.66,'11111222,11111222,11111222' 
TABS,ioos:station:wmo:42044:1,2002-10-02T00:39:00Z,26.1914,-97.0507,0.0,7.392300048,98.55799397,9.38,'11111222,11111222,11111222' 
TABS,ioos:station:wmo:42044:1,2002-10-02T01:09:00Z,26.1914,-97.0507,0.0,6.78759162,111.1590919,8.29,'11111222,11111222,11111222' 
TABS,ioos:station:wmo:42044:1,2002-10-02T01:39:00Z,26.1914,-97.0507,0.0,8.484085101,98.54118447,10.7,'11111222,11111222,11111222' 
TABS,ioos:station:wmo:42044:1,2002-10-02T02:09:00Z,26.1914,-97.0507,0.0,8.090055624,90.21288834,10.73,'11111222,11111222,11111222' 
TABS,ioos:station:wmo:42044:1,2002-10-02T02:39:00Z,26.1914,-97.0507,0.0,8.209811204,93.98161026,10.9,'11111222,11111222,11111222' 
TABS,ioos:station:wmo:42044:1,2002-10-02T03:09:00Z,26.1914,-97.0507,0.0,8.228979281,94.81030892,10.62,'11111222,11111222,11111222' 
TABS,ioos:station:wmo:42044:1,2002-10-02T03:39:00Z,26.1914,-97.0507,0.0,8.714149413,102.7288846,11.54,'11111222,11111222,11111222' 
TABS,ioos:station:wmo:42044:1,2002-10-02T04:09:00Z,26.1914,-97.0507,0.0,8.450662696,101.1906565,11.34,'11111222,11111222,11111222' 
TABS,ioos:station:wmo:42044:1,2002-10-02T04:39:00Z,26.1914,-97.0507,0.0,7.909096029,104.1244813,10.63,'11111222,11111222,11111222' 
TABS,ioos:station:wmo:42044:1,2002-10-02T05:09:00Z,26.1914,-97.0507,0.0,8.120738883,108.5245721,9.91,'11111222,11111222,11111222' 
TABS,ioos:station:wmo:42044:1,2002-10-02T05:39:00Z,26.1914,-97.0507,0.0,8.064192458,114.4678389,10.37,'11111222,11111222,11111222' 
TABS,ioos:station:wmo:42044:1,2002-10-02T06:09:00Z,26.1914,-97.0507,0.0,7.16799135,114.7420071,9.08,'11111222,11111222,11111222' 
TABS,ioos:station:wmo:42044:1,2002-10-02T06:39:00Z,26.1914,-97.0507,0.0,7.186689085,119.4189061,9.34,'11111222,11111222,11111222' 
TABS,ioos:station:wmo:42044:1,2002-10-02T07:09:00Z,26.1914,-97.0507,0.0,8.397958085,111.0035945,10.68,'11111222,11111222,11111222' 
TABS,ioos:station:wmo:42044:1,2002-10-02T07:39:00Z,26.1914,-97.0507,0.0,8.343836048,109.6080078,10.54,'11111222,11111222,11111222' 
TABS,ioos:station:wmo:42044:1,2002-10-02T08:09:00Z,26.1914,-97.0507,0.0,8.199859755,108.192269,10.36,'11111222,11111222,11111222' 
TABS,ioos:station:wmo:42044:1,2002-10-02T08:39:00Z,26.1914,-97.0507,0.0,7.926790019,109.7611663,9.6,'11111222,11111222,11111222' 
TABS,ioos:station:wmo:42044:1,2002-10-02T09:09:00Z,26.1914,-97.0507,0.0,6.974818994,119.1746387,9.1,'11111222,11111222,11111222' 
TABS,ioos:station:wmo:42044:1,2002-10-02T09:39:00Z,26.1914,-97.0507,0.0,6.8256062,123.8300981,8.64,'11111222,11111222,11111222' 
TABS,ioos:station:wmo:42044:1,2002-10-02T10:09:00Z,26.1914,-97.0507,0.0,6.751148051,123.031327,8.54,'11111222,11111222,11111222' 
TABS,ioos:station:wmo:42044:1,2002-10-02T10:39:00Z,26.1914,-97.0507,0.0,6.723585353,128.1144825,8.43,'11111222,11111222,11111222' 
TABS,ioos:station:wmo:42044:1,2002-10-02T11:09:00Z,26.1914,-97.0507,0.0,5.69474319,127.7958981,7.44,'11111222,11111222,11111222' 
TABS,ioos:station:wmo:42044:1,2002-10-02T11:39:00Z,26.1914,-97.0507,0.0,5.474614142,127.7284515,7.13,'11111222,11111222,11111222' 
TABS,ioos:station:wmo:42044:1,2002-10-02T12:09:00Z,26.1914,-97.0507,0.0,5.110234828,129.2029602,6.71,'11111222,11111222,11111222' 
TABS,ioos:station:wmo:42044:1,2002-10-02T12:39:00Z,26.1914,-97.0507,0.0,4.676034645,130.2294899,6.69,'11111222,11111222,11111222' 
TABS,ioos:station:wmo:42044:1,2002-10-02T13:09:00Z,26.1914,-97.0507,0.0,4.601760533,137.8187489,6.38,'11111222,11111222,11111222' 
TABS,ioos:station:wmo:42044:1,2002-10-02T13:39:00Z,26.1914,-97.0507,0.0,4.720550815,131.0492337,6.24,'11111222,11111222,11111222' 
TABS,ioos:station:wmo:42044:1,2002-10-02T14:09:00Z,26.1914,-97.0507,0.0,3.990613988,127.875316,5.58,'11111222,11111222,11111222' 
TABS,ioos:station:wmo:42044:1,2002-10-02T14:39:00Z,26.1914,-97.0507,0.0,3.855385843,120.5563137,4.9,'11111222,11111222,11111222' 
TABS,ioos:station:wmo:42044:1,2002-10-02T15:09:00Z,26.1914,-97.0507,0.0,3.591684841,123.6461659,5.25,'11111222,11111222,11111222' 
TABS,ioos:station:wmo:42044:1,2002-10-02T15:39:00Z,26.1914,-97.0507,0.0,3.104383997,138.9185554,4.23,'11111222,11111222,11111222' 
TABS,ioos:station:wmo:42044:1,2002-10-02T16:09:00Z,26.1914,-97.0507,0.0,5.155540709,94.45025758,6.56,'11111222,11111222,11111222' 
TABS,ioos:station:wmo:42044:1,2002-10-02T16:39:00Z,26.1914,-97.0507,0.0,4.785781023,103.1655029,5.93,'11111222,11111222,11111222' 
TABS,ioos:station:wmo:42044:1,2002-10-02T17:09:00Z,26.1914,-97.0507,0.0,5.934475545,78.72754195,7.72,'11111222,11111222,11111222' 
TABS,ioos:station:wmo:42044:1,2002-10-02T17:39:00Z,26.1914,-97.0507,0.0,5.506941075,78.68967306,7.14,'11111222,11111222,11111222' 
TABS,ioos:station:wmo:42044:1,2002-10-02T18:09:00Z,26.1914,-97.0507,0.0,4.491169113,79.08998546,6.29,'11111222,11111222,11111222' 
TABS,ioos:station:wmo:42044:1,2002-10-02T18:39:00Z,26.1914,-97.0507,0.0,4.256994245,67.04846233,5.78,'11111222,11111222,11111222' 
TABS,ioos:station:wmo:42044:1,2002-10-02T19:09:00Z,26.1914,-97.0507,0.0,4.913827429,61.29612867,6.33,'11111222,11111222,11111222' 
TABS,ioos:station:wmo:42044:1,2002-10-02T19:39:00Z,26.1914,-97.0507,0.0,4.892524911,63.53933515,6.29,'11111222,11111222,11111222' 
TABS,ioos:station:wmo:42044:1,2002-10-02T20:09:00Z,26.1914,-97.0507,0.0,5.472440041,60.43657522,7.49,'11111222,11111222,11111222' 
TABS,ioos:station:wmo:42044:1,2002-10-02T20:39:00Z,26.1914,-97.0507,0.0,6.238789947,63.02387559,7.95,'11111222,11111222,11111222' 
TABS,ioos:station:wmo:42044:1,2002-10-02T21:09:00Z,26.1914,-97.0507,0.0,6.819538108,60.57782049,8.45,'11111222,11111222,11111222' 
TABS,ioos:station:wmo:42044:1,2002-10-02T21:39:00Z,26.1914,-97.0507,0.0,6.516417728,61.19270478,8.62,'11111222,11111222,11111222' 
TABS,ioos:station:wmo:42044:1,2002-10-02T22:09:00Z,26.1914,-97.0507,0.0,6.529448675,59.74321267,8.2,'11111222,11111222,11111222' 
TABS,ioos:station:wmo:42044:1,2002-10-02T22:39:00Z,26.1914,-97.0507,0.0,6.794770048,54.76585922,8.58,'11111222,11111222,11111222' 
TABS,ioos:station:wmo:42044:1,2002-10-02T23:09:00Z,26.1914,-97.0507,0.0,5.976796801,59.31538369,8.03,'11111222,11111222,11111222' 
TABS,ioos:station:wmo:42044:1,2002-10-02T23:39:00Z,26.1914,-97.0507,0.0,6.154185568,54.65679317,8.09,'11111222,11111222,11111222' 
TABS,ioos:station:wmo:42044:1,2002-10-03T00:09:00Z,26.1914,-97.0507,0.0,6.093611409,49.59215174,7.62,'11111222,11111222,11111222' 
TABS,ioos:station:wmo:42044:1,2002-10-03T00:39:00Z,26.1914,-97.0507,0.0,5.785844796,55.70534419,7.62,'11111222,11111222,11111222' 
TABS,ioos:station:wmo:42044:1,2002-10-03T01:09:00Z,26.1914,-97.0507,0.0,5.56044063,53.8510776,7.88,'11111222,11111222,11111222' 
TABS,ioos:station:wmo:42044:1,2002-10-03T01:39:00Z,26.1914,-97.0507,0.0,6.11859461,55.79015175,7.78,'11111222,11111222,11111222' 
TABS,ioos:station:wmo:42044:1,2002-10-03T02:09:00Z,26.1914,-97.0507,0.0,6.086682183,63.77137172,8.38,'11111222,11111222,11111222' 
TABS,ioos:station:wmo:42044:1,2002-10-03T02:39:00Z,26.1914,-97.0507,0.0,6.378024773,62.55071611,7.93,'11111222,11111222,11111222' 
TABS,ioos:station:wmo:42044:1,2002-10-03T03:09:00Z,26.1914,-97.0507,0.0,4.8588476,61.7468089,6.56,'11111222,11111222,11111222' 
TABS,ioos:station:wmo:42044:1,2002-10-03T03:39:00Z,26.1914,-97.0507,0.0,5.641790496,72.14274883,7.4,'11111222,11111222,11111222' 
TABS,ioos:station:wmo:42044:1,2002-10-03T04:09:00Z,26.1914,-97.0507,0.0,5.991402173,78.93348284,8.17,'11111222,11111222,11111222' 
TABS,ioos:station:wmo:42044:1,2002-10-03T04:39:00Z,26.1914,-97.0507,0.0,5.509128788,80.91343122,7.34,'11111222,11111222,11111222' 
TABS,ioos:station:wmo:42044:1,2002-10-03T05:09:00Z,26.1914,-97.0507,0.0,4.220426519,78.79617042,6.32,'11111222,11111222,11111222' 
TABS,ioos:station:wmo:42044:1,2002-10-03T05:39:00Z,26.1914,-97.0507,0.0,3.926117675,81.20905646,5.61,'11111222,11111222,11111222' 
TABS,ioos:station:wmo:42044:1,2002-10-03T06:09:00Z,26.1914,-97.0507,0.0,3.071742177,77.59218957,5.63,'11111222,11111222,11111222' 
TABS,ioos:station:wmo:42044:1,2002-10-03T06:39:00Z,26.1914,-97.0507,0.0,2.751908429,70.24776404,5.17,'11111222,11111222,11111222' 
TABS,ioos:station:wmo:42044:1,2002-10-03T07:09:00Z,26.1914,-97.0507,0.0,3.788112987,117.1741956,6.13,'11111222,11111222,11111222' 
TABS,ioos:station:wmo:42044:1,2002-10-03T07:39:00Z,26.1914,-97.0507,0.0,2.572353008,118.0597401,5.22,'11111222,11111222,11111222' 
TABS,ioos:station:wmo:42044:1,2002-10-03T08:09:00Z,26.1914,-97.0507,0.0,1.626314853,125.7427883,4.13,'11111222,11111222,11111222' 
TABS,ioos:station:wmo:42044:1,2002-10-03T08:39:00Z,26.1914,-97.0507,0.0,1.752854814,130.1407126,4.2,'11111222,11111222,11111222' 
TABS,ioos:station:wmo:42044:1,2002-10-03T09:09:00Z,26.1914,-97.0507,0.0,1.440138882,90.79614261,3.88,'11111222,11111222,11111222' 
TABS,ioos:station:wmo:42044:1,2002-10-03T09:39:00Z,26.1914,-97.0507,0.0,1.767823521,111.9221482,4.14,'11111222,11111222,11111222' 
TABS,ioos:station:wmo:42044:1,2002-10-03T10:09:00Z,26.1914,-97.0507,0.0,1.682973559,135.4817804,3.96,'11111222,11111222,11111222' 
TABS,ioos:station:wmo:42044:1,2002-10-03T10:39:00Z,26.1914,-97.0507,0.0,2.264177555,61.51036128,5.38,'11111222,11111222,11111222' 
TABS,ioos:station:wmo:42044:1,2002-10-03T11:09:00Z,26.1914,-97.0507,0.0,1.828879438,76.72321309,4.79,'11111222,11111222,11111222' 
TABS,ioos:station:wmo:42044:1,2002-10-03T11:39:00Z,26.1914,-97.0507,0.0,1.208304597,102.4263347,4.91,'11111222,11111222,11111222' 
TABS,ioos:station:wmo:42044:1,2002-10-03T12:09:00Z,26.1914,-97.0507,0.0,1.803607496,73.57422248,4.76,'11111222,11111222,11111222' 
TABS,ioos:station:wmo:42044:1,2002-10-03T12:39:00Z,26.1914,-97.0507,0.0,1.767823521,21.92151687,4.14,'11111222,11111222,11111222' 
TABS,ioos:station:wmo:42044:1,2002-10-03T13:09:00Z,26.1914,-97.0507,0.0,1.384088147,40.01727637,4.29,'11111222,11111222,11111222' 
TABS,ioos:station:wmo:42044:1,2002-10-03T13:39:00Z,26.1914,-97.0507,0.0,1.628741846,155.323405,4.56,'11111222,11111222,11111222' 
TABS,ioos:station:wmo:42044:1,2002-10-03T14:09:00Z,26.1914,-97.0507,0.0,1.903943276,119.9318628,4.68,'11111222,11111222,11111222' 
TABS,ioos:station:wmo:42044:1,2002-10-03T14:39:00Z,26.1914,-97.0507,0.0,0.39408121,144.2936026,3.79,'11111222,11111222,11111222' 
TABS,ioos:station:wmo:42044:1,2002-10-03T15:09:00Z,26.1914,-97.0507,0.0,1.46812806,121.6334162,4.77,'11111222,11111222,11111222' 
TABS,ioos:station:wmo:42044:1,2002-10-03T15:39:00Z,26.1914,-97.0507,0.0,0.728354309,135.5565666,5.01,'11111222,11111222,11111222' 
TABS,ioos:station:wmo:42044:1,2002-10-03T16:09:00Z,26.1914,-97.0507,0.0,1.064800451,104.6891733,3.91,'11111222,11111222,11111222' 
TABS,ioos:station:wmo:42044:1,2002-10-03T16:39:00Z,26.1914,-97.0507,0.0,1.706722004,119.8701503,4.69,'11111222,11111222,11111222' 
TABS,ioos:station:wmo:42044:1,2002-10-03T17:09:00Z,26.1914,-97.0507,0.0,1.697557068,95.40874043,4.79,'11111222,11111222,11111222' 
TABS,ioos:station:wmo:42044:1,2002-10-03T17:39:00Z,26.1914,-97.0507,0.0,2.222476097,128.0562014,5.14,'11111222,11111222,11111222' 
TABS,ioos:station:wmo:42044:1,2002-10-03T18:09:00Z,26.1914,-97.0507,0.0,3.267246547,120.3325251,5.73,'11111222,11111222,11111222' 
TABS,ioos:station:wmo:42044:1,2002-10-03T18:39:00Z,26.1914,-97.0507,0.0,3.434719785,93.00443387,6.05,'11111222,11111222,11111222' 
TABS,ioos:station:wmo:42044:1,2002-10-03T19:09:00Z,26.1914,-97.0507,0.0,2.579476691,123.135953,5.47,'11111222,11111222,11111222' 
TABS,ioos:station:wmo:42044:1,2002-10-03T19:39:00Z,26.1914,-97.0507,0.0,3.642965825,103.6551748,6.89,'11111222,11111222,11111222' 
TABS,ioos:station:wmo:42044:1,2002-10-03T20:09:00Z,26.1914,-97.0507,0.0,4.694006817,121.319974,7.8,'11111222,11111222,11111222' 
TABS,ioos:station:wmo:42044:1,2002-10-03T20:39:00Z,26.1914,-97.0507,0.0,4.138417572,121.4627284,6.32,'11111222,11111222,11111222' 
TABS,ioos:station:wmo:42044:1,2002-10-03T21:09:00Z,26.1914,-97.0507,0.0,4.536794022,111.1920248,7.3,'11111222,11111222,11111222' 
TABS,ioos:station:wmo:42044:1,2002-10-03T21:39:00Z,26.1914,-97.0507,0.0,5.175567602,115.278084,8.06,'11111222,11111222,11111222' 
TABS,ioos:station:wmo:42044:1,2002-10-03T22:09:00Z,26.1914,-97.0507,0.0,4.929310297,119.2694619,7.91,'11111222,11111222,11111222' 
TABS,ioos:station:wmo:42044:1,2002-10-03T22:39:00Z,26.1914,-97.0507,0.0,5.792451985,119.9292651,8.71,'11111222,11111222,11111222' 
TABS,ioos:station:wmo:42044:1,2002-10-03T23:09:00Z,26.1914,-97.0507,0.0,6.203361992,121.4868321,8.57,'11111222,11111222,11111222' 
TABS,ioos:station:wmo:42044:1,2002-10-03T23:39:00Z,26.1914,-97.0507,0.0,6.940180113,118.4856279,9.4,'11111222,11111222,11111222' 
TABS,ioos:station:wmo:42044:1,2002-10-04T00:09:00Z,26.1914,-97.0507,0.0,5.798344591,135.2798044,9.84,'11111222,11111222,11111222' 
TABS,ioos:station:wmo:42044:1,2002-10-04T00:39:00Z,26.1914,-97.0507,0.0,7.08815914,129.6196059,9.72,'11111222,11111222,11111222' 
TABS,ioos:station:wmo:42044:1,2002-10-04T01:09:00Z,26.1914,-97.0507,0.0,8.069398986,137.611991,10.38,'11111222,11111222,11111222' 
TABS,ioos:station:wmo:42044:1,2002-10-04T01:39:00Z,26.1914,-97.0507,0.0,7.508002397,137.2132782,10.54,'11111222,11111222,11111222' 
TABS,ioos:station:wmo:42044:1,2002-10-04T02:09:00Z,26.1914,-97.0507,0.0,7.575862987,153.6719789,10.36,'11111222,11111222,11111222' 
TABS,ioos:station:wmo:42044:1,2002-10-04T02:39:00Z,26.1914,-97.0507,0.0,6.71107294,158.4049505,9.15,'11111222,11111222,11111222' 
TABS,ioos:station:wmo:42044:1,2002-10-04T03:09:00Z,26.1914,-97.0507,0.0,8.016389462,150.3972413,10.46,'11111222,11111222,11111222' 
TABS,ioos:station:wmo:42044:1,2002-10-04T03:39:00Z,26.1914,-97.0507,0.0,7.538965446,168.2133486,10.3,'11111222,11111222,11111222' 
TABS,ioos:station:wmo:42044:1,2002-10-04T04:09:00Z,26.1914,-97.0507,0.0,7.4103981,167.6894765,9.9,'11111222,11111222,11111222' 
TABS,ioos:station:wmo:42044:1,2002-10-04T04:39:00Z,26.1914,-97.0507,0.0,7.970307397,156.8771874,11.63,'11111222,11111222,11111222' 
TABS,ioos:station:wmo:42044:1,2002-10-04T05:09:00Z,26.1914,-97.0507,0.0,8.004854777,151.5783271,10.55,'11111222,11111222,11111222' 
TABS,ioos:station:wmo:42044:1,2002-10-04T05:39:00Z,26.1914,-97.0507,0.0,8.202712966,156.8108459,10.79,'11111222,11111222,11111222' 
TABS,ioos:station:wmo:42044:1,2002-10-04T06:09:00Z,26.1914,-97.0507,0.0,9.268360157,167.5384837,11.72,'11111222,11111222,11111222' 
TABS,ioos:station:wmo:42044:1,2002-10-04T06:39:00Z,26.1914,-97.0507,0.0,9.82682553,163.8706479,12.77,'11111222,11111222,11111222' 
TABS,ioos:station:wmo:42044:1,2002-10-04T07:09:00Z,26.1914,-97.0507,0.0,10.65979831,165.4946944,13.65,'11111222,11111222,11111222' 
TABS,ioos:station:wmo:42044:1,2002-10-04T07:39:00Z,26.1914,-97.0507,0.0,10.77298937,169.1388139,14.06,'11111222,11111222,11111222' 
TABS,ioos:station:wmo:42044:1,2002-10-04T08:09:00Z,26.1914,-97.0507,0.0,10.04097605,165.9363208,13.23,'11111222,11111222,11111222' 
TABS,ioos:station:wmo:42044:1,2002-10-04T08:39:00Z,26.1914,-97.0507,0.0,10.24275842,161.2645894,13.49,'11111222,11111222,11111222' 
TABS,ioos:station:wmo:42044:1,2002-10-04T09:09:00Z,26.1914,-97.0507,0.0,9.584257926,160.2418784,13.81,'11111222,11111222,11111222' 
TABS,ioos:station:wmo:42044:1,2002-10-04T09:39:00Z,26.1914,-97.0507,0.0,9.989194162,170.085288,12.89,'11111222,11111222,11111222' 
TABS,ioos:station:wmo:42044:1,2002-10-04T10:09:00Z,26.1914,-97.0507,0.0,9.770537344,170.9910215,12.99,'11111222,11111222,11111222' 
TABS,ioos:station:wmo:42044:1,2002-10-04T10:39:00Z,26.1914,-97.0507,0.0,9.767097829,166.3196921,12.23,'11111222,11111222,11111222' 
TABS,ioos:station:wmo:42044:1,2002-10-04T11:09:00Z,26.1914,-97.0507,0.0,8.788401447,164.2876869,11.71,'11111222,11111222,11111222' 
TABS,ioos:station:wmo:42044:1,2002-10-04T11:39:00Z,26.1914,-97.0507,0.0,8.978669166,165.9485229,12.24,'11111222,11111222,11111222' 
TABS,ioos:station:wmo:42044:1,2002-10-04T12:09:00Z,26.1914,-97.0507,0.0,8.969620951,170.6324229,11.51,'11111222,11111222,11111222' 
TABS,ioos:station:wmo:42044:1,2002-10-04T12:39:00Z,26.1914,-97.0507,0.0,8.382869437,170.1783425,11.11,'11111222,11111222,11111222' 
TABS,ioos:station:wmo:42044:1,2002-10-04T13:09:00Z,26.1914,-97.0507,0.0,8.307695228,165.1443516,10.46,'11111222,11111222,11111222' 
TABS,ioos:station:wmo:42044:1,2002-10-04T13:39:00Z,26.1914,-97.0507,0.0,8.394057422,162.6014356,10.65,'11111222,11111222,11111222' 
TABS,ioos:station:wmo:42044:1,2002-10-04T14:09:00Z,26.1914,-97.0507,0.0,8.483395547,164.129069,11.15,'11111222,11111222,11111222' 
TABS,ioos:station:wmo:42044:1,2002-10-04T14:39:00Z,26.1914,-97.0507,0.0,8.956215719,162.2531431,11.21,'11111222,11111222,11111222' 
TABS,ioos:station:wmo:42044:1,2002-10-04T15:09:00Z,26.1914,-97.0507,0.0,8.854433918,161.3606783,10.95,'11111222,11111222,11111222' 
TABS,ioos:station:wmo:42044:1,2002-10-04T15:39:00Z,26.1914,-97.0507,0.0,8.09862334,161.721911,10.05,'11111222,11111222,11111222' 
TABS,ioos:station:wmo:42044:1,2002-10-04T16:09:00Z,26.1914,-97.0507,0.0,7.881281622,164.9236577,10.1,'11111222,11111222,11111222' 
TABS,ioos:station:wmo:42044:1,2002-10-04T16:39:00Z,26.1914,-97.0507,0.0,7.021395873,162.597547,8.67,'11111222,11111222,11111222' 
TABS,ioos:station:wmo:42044:1,2002-10-04T17:09:00Z,26.1914,-97.0507,0.0,6.382491676,157.815442,8.39,'11111222,11111222,11111222' 
TABS,ioos:station:wmo:42044:1,2002-10-04T17:39:00Z,26.1914,-97.0507,0.0,6.093972432,157.0115474,7.91,'11111222,11111222,11111222' 
TABS,ioos:station:wmo:42044:1,2002-10-04T18:09:00Z,26.1914,-97.0507,0.0,6.504713675,150.834454,8.3,'11111222,11111222,11111222' 
TABS,ioos:station:wmo:42044:1,2002-10-04T18:39:00Z,26.1914,-97.0507,0.0,6.892140451,143.4961817,8.91,'11111222,11111222,11111222' 